Hanford, CA

11:24 AM PDT on March 24, 2017 (GMT -0700)
Hanford Municipal

Weather History for KHJO - November, 2011

Change the Weather History Date:

Saturday, November 26, 2011

  Actual Average Record
Temperature  
Mean Temperature 49 °F 48 °F  
Max Temperature 59 °F 60 °F 72 °F (2009)
Min Temperature 39 °F 36 °F 26 °F (2010)
Degree Days  
Heating Degree Days 16    
Month to date heating degree days 362  
Since 1 July heating degree days 430  
Cooling Degree Days 0    
Month to date cooling degree days 0  
Year to date cooling degree days 1664  
Moisture  
Dew Point 43 °F    
Average Humidity 81    
Maximum Humidity 100    
Minimum Humidity 62    
Precipitation  
Precipitation 0.00 in 0.01 in 0.58 in (2008)
Month to date precipitation 0.71 0.92  
Year to date precipitation 7.41 8.39  
Since 1 July precipitation 1.23  
Snow  
Snow 0.00 in - - ()
Month to date snowfall 0.0  
Since 1 July snowfall 0.0  
Since 1 September snowfall 0.0  
Snow Depth 0.00 in    
Sea Level Pressure  
Sea Level Pressure 30.38 in    
Wind  
Wind Speed 1 mph (ENE)    
Max Wind Speed 6 mph    
Max Gust Speed -    
Visibility 2 miles    
Events Fog    
T = Trace of Precipitation, MM = Missing Value Source: NWS Daily Summary

Daily Weather History Graph

Daily Weather History Graph

Search for Another Location

Airport or City:

Trip Planner

Search our weather history database for the weather conditions in past years. The results will help you decide how hot, cold, wet, or windy it might be!

Date:

Astronomy

Nov. 26, 2011 Rise Set
Actual Time 6:46 AM PST 4:44 PM PST
Civil Twilight 6:18 AM PST 5:12 PM PST
Nautical Twilight 5:46 AM PST 5:44 PM PST
Astronomical Twilight 5:15 AM PST 6:15 PM PST
Moon 8:20 AM PST (11/26) 6:22 PM PST (11/26)
Length of Visible Light 10h 54m
Length of Day
9h 58m
Waxing Crescent, 4% of the Moon is Illuminated
Nov 26
Waxing Crescent
Dec 2
First Quarter
Dec 10
Full
Dec 17
Last Quarter
Dec 24
New

Hourly Weather History & Observations

Time (PST) Temp. Windchill Dew Point Humidity Pressure Visibility Wind Dir Wind Speed Gust Speed Precip Events Conditions
12:31 AM 44.6 °F 43.1 °F 42.8 °F 93% 30.40 in 2.5 mi NNE 3.5 mph - N/A   Overcast
12:53 AM 44.1 °F - 42.1 °F 93% 30.40 in 2.0 mi Calm Calm - N/A   Partly Cloudy
1:01 AM 44.6 °F - 42.8 °F 93% 30.39 in 1.8 mi Calm Calm - N/A   Clear
1:04 AM 44.6 °F - 42.8 °F 93% 30.39 in 2.0 mi Calm Calm - N/A   Partly Cloudy
1:12 AM 42.8 °F 41.1 °F 39.2 °F 87% 30.40 in 1.5 mi North 3.5 mph - N/A   Scattered Clouds
1:16 AM 42.8 °F - 41.0 °F 93% 30.40 in 0.8 mi Calm Calm - N/A   Mist
1:22 AM 42.8 °F - 39.2 °F 87% 30.40 in 0.2 mi Calm Calm - N/A Fog Fog
1:53 AM 41.0 °F - 39.0 °F 93% 30.40 in 0.2 mi Calm Calm - N/A Fog Fog
2:53 AM 39.9 °F - 37.9 °F 93% 30.41 in 0.2 mi Calm Calm - N/A Fog Fog
3:53 AM 39.0 °F - 37.0 °F 93% 30.40 in 0.2 mi Calm Calm - N/A Fog Fog
4:53 AM 39.9 °F - 39.0 °F 97% 30.41 in 0.2 mi Calm Calm - N/A Fog Fog
5:53 AM 41.0 °F - 39.9 °F 96% 30.42 in 0.2 mi Calm Calm - N/A Fog Fog
7:53 AM 43.0 °F 41.3 °F 41.0 °F 93% 30.45 in 0.2 mi ENE 3.5 mph - N/A Fog Fog
8:53 AM 44.1 °F 42.5 °F 43.0 °F 96% 30.45 in 0.2 mi East 3.5 mph - N/A Fog Fog
9:53 AM 46.0 °F 44.8 °F 45.0 °F 96% 30.45 in 0.2 mi ESE 3.5 mph - N/A Fog Fog
10:18 AM 46.4 °F - 44.6 °F 93% 30.44 in 0.2 mi Calm Calm - N/A Fog Fog
10:53 AM 48.0 °F - 46.0 °F 93% 30.44 in 0.2 mi Calm Calm - N/A Fog Fog
11:12 AM 48.2 °F - 46.4 °F 93% 30.42 in 0.5 mi North - - N/A Fog Fog
11:29 AM 48.2 °F - 46.4 °F 93% 30.41 in 1.5 mi Calm Calm - N/A   Overcast
11:39 AM 50.0 °F - 46.4 °F 87% 30.41 in 2.5 mi Calm Calm - N/A   Overcast
11:53 AM 52.0 °F - 48.0 °F 86% 30.41 in 3.0 mi Calm Calm - N/A   Overcast
12:05 PM 53.6 °F - 46.4 °F 77% 30.39 in 3.0 mi Calm Calm - N/A   Haze
12:19 PM 53.6 °F - 48.2 °F 82% 30.39 in 4.0 mi Calm Calm - N/A   Haze
12:53 PM 57.0 °F - 48.0 °F 72% 30.39 in 5.0 mi Calm Calm - N/A   Haze
1:53 PM 59.0 °F - 48.0 °F 67% 30.37 in 5.0 mi Calm Calm - N/A   Haze
2:53 PM 59.0 °F - 46.9 °F 64% 30.35 in 5.0 mi Calm Calm - N/A   Haze
3:53 PM 57.9 °F - 46.9 °F 67% 30.35 in 5.0 mi Calm Calm - N/A   Haze
4:53 PM 54.0 °F - 46.0 °F 75% 30.35 in 5.0 mi North - - N/A   Haze
5:53 PM 51.1 °F - 46.0 °F 83% 30.36 in 4.0 mi South 3.5 mph - N/A   Haze
6:53 PM 50.0 °F - 46.0 °F 86% 30.36 in 3.0 mi Calm Calm - N/A   Clear
7:04 PM 46.4 °F - 44.6 °F 93% 30.35 in 2.0 mi Calm Calm - N/A   Clear
7:19 PM 44.6 °F - 42.8 °F 93% 30.35 in 1.5 mi Calm Calm - N/A   Clear
7:53 PM 45.0 °F - 42.1 °F 90% 30.36 in 1.0 mi Calm Calm - N/A   Clear
8:43 PM 42.8 °F - 41.0 °F 93% 30.34 in 0.2 mi Calm Calm - N/A Fog Fog
8:53 PM 46.0 °F 44.8 °F 43.0 °F 89% 30.35 in 0.2 mi SSE 3.5 mph - N/A Fog Fog
9:21 PM 46.4 °F - 44.6 °F 93% 30.35 in 0.2 mi Calm Calm - N/A Fog Fog
9:33 PM 44.6 °F - 42.8 °F 93% 30.35 in 0.8 mi Calm Calm - N/A   Clear
10:22 PM 42.8 °F - 41.0 °F 93% 30.34 in 0.8 mi Calm Calm - N/A   Clear
10:36 PM 42.8 °F 39.3 °F 41.0 °F 93% 30.34 in 0.5 mi ENE 5.8 mph - N/A Fog Fog
10:50 PM 44.6 °F 43.1 °F 42.8 °F 93% 30.34 in 1.0 mi NE 3.5 mph - N/A   Mist
10:53 PM 44.1 °F 41.5 °F 42.1 °F 93% 30.35 in 0.8 mi ENE 4.6 mph - N/A   Mist
11:17 PM 42.8 °F - 41.0 °F 93% 30.35 in 0.2 mi Calm Calm - N/A Fog Fog
11:28 PM 42.8 °F - 39.2 °F 87% 30.34 in 0.2 mi Calm Calm - 0.01 in Fog Fog
11:53 PM 42.1 °F 39.2 °F 39.9 °F 92% 30.35 in 0.2 mi NNE 4.6 mph - 0.01 in Fog Fog